Location: Most
(50.5330°N, 13.6500°E)
Time: 03:39:35
(UTC+02:00)

ISS - Visible Passes

Search period start: 12 September 2024 00:00
Search period end: 22 September 2024 00:00
Orbit: 415 x 425 km, 51.6° (Epoch: 11 September)

Date Brightness Start Highest point End Pass type
(mag) Time Alt. Az. Time Alt. Az. Time Alt. Az.
12 Sep -2.5 20:39:32 10° SSW 20:42:17 24° SE 20:42:53 22° SE visible
12 Sep -1.0 22:15:24 10° WSW 22:15:53 13° WSW 22:15:53 13° WSW visible
13 Sep -3.3 21:28:01 10° WSW 21:30:45 51° SSW 21:30:45 51° SSW visible
14 Sep -3.5 20:40:39 10° SW 20:43:54 47° SSE 20:45:23 26° E visible
14 Sep -1.3 22:17:16 10° W 22:18:21 19° W 22:18:21 19° W visible
15 Sep -2.9 19:53:22 10° SW 19:56:25 33° SSE 19:59:31 10° E visible
15 Sep -3.7 21:29:40 10° W 21:32:48 74° W 21:32:48 74° W visible
16 Sep -3.9 20:42:04 10° WSW 20:45:26 81° SSE 20:47:06 27° ENE visible
16 Sep -1.1 22:18:57 10° W 22:20:03 19° W 22:20:03 19° W visible
17 Sep -3.7 19:54:28 10° WSW 19:57:47 63° SSE 20:01:08 10° ENE visible
17 Sep -3.3 21:31:15 10° W 21:34:14 62° NW 21:34:14 62° NW visible
18 Sep -3.7 20:43:30 10° W 20:46:51 75° N 20:48:19 31° ENE visible
18 Sep -0.9 22:20:23 10° WNW 22:21:14 17° WNW 22:21:14 17° WNW visible
19 Sep -3.7 19:55:42 10° W 19:59:04 84° N 20:02:19 11° ENE visible
19 Sep -3.0 21:32:36 10° WNW 21:35:15 51° WNW 21:35:15 51° WNW visible
20 Sep -3.7 20:44:45 10° W 20:48:07 71° N 20:49:11 40° ENE visible
20 Sep -0.7 22:21:36 10° WNW 22:22:07 14° W 22:22:07 14° W visible
21 Sep -3.6 19:56:51 10° W 20:00:13 71° N 20:03:04 14° E visible
21 Sep -2.5 21:33:42 10° WNW 21:36:00 40° W 21:36:00 40° W visible
